RH
42 54 58 43 38 23 21 21 18 12 2 26 59 95 74 69 77 98 95 80 90 85 84 84 73 91 100 99 94 94 100 92 87 87 75 38 57 63 91 92 93 64 60 52 58 68 77 78 77 81 73 90 100 100
47 50 57 47 34 25 23 21 18 11 3 9 34 71 78 64 68 73 76 82 78 73 76 76 73 76 85 96 99 100 92 89 96 78 57 32 50 61 91 92 82 56 51 47 61 74 78 80 78 79 67 56 70 79
44 46 62 53 36 28 21 21 18 9 3 2 31 37 59 69 50 44 60 81 76 82 84 87 84 72 70 91 96 97 93 84 100 99 66 34 38 56 80 85 71 54 48 49 51 65 73 80 87 86 89 78 74 82
53 49 63 55 40 35 20 20 17 8 3 2 10 32 41 56 46 50 54 67 61 59 64 77 74 64 92 97 100 99 97 94 100 100 69 34 35 52 68 74 67 52 51 58 57 54 82 82 88 82 88 93 91 91
49 55 69 60 46 40 20 20 17 8 4 4 2 15 40 42 44 52 59 59 60 66 79 82 83 94 93 100 99 100 100 100 98 83 51 28 34 52 59 52 45 36 33 40 51 53 89 92 94 98 95 98 99 99
50 56 72 61 53 31 21 20 18 8 6 5 2 24 52 50 55 61 50 57 74 64 66 72 95 100 99 96 100 100 100 100 94 59 40 33 33 37 43 42 34 34 39 39 42 54 79 93 98 98 98 94 96 99
49 56 72 60 49 26 20 19 17 7 7 4 2 50 50 50 59 53 56 73 70 61 73 80 87 100 99 96 99 100 100 100 91 56 43 43 38 39 60 69 34 47 56 53 50 75 89 91 90 90 96 99 93 100
53 63 71 65 48 24 20 19 17 6 7 2 4 62 56 60 59 61 72 79 67 67 70 86 95 94 100 99 98 99 100 100 96 86 86 87 80 76 90 79 74 76 70 77 87 94 98 96 89 94 97 97 93 95
62 69 74 62 47 24 21 19 16 5 5 2 16 68 72 65 68 77 88 78 73 72 82 95 95 91 96 100 98 98 99 98 99 97 95 93 94 91 88 80 69 67 69 81 87 87 98 94 90 95 91 94 91 96
65 72 75 65 48 24 21 21 16 5 4 2 46 83 94 90 94 85 79 76 80 78 98 99 92 94 92 100 99 97 99 99 99 98 98 98 98 81 89 82 87 87 81 80 84 97 96 94 96 97 93 94 93 100
69 70 76 70 50 25 19 21 19 6 4 7 59 85 98 90 86 84 81 74 75 73 98 95 82 84 90 98 96 94 98 99 99 99 99 95 96 97 100 100 97 97 96 96 96 98 92 93 100 100 100 99 100 100
72 72 78 73 54 28 19 22 21 8 5 10 46 64 82 94 87 78 68 66 72 77 81 82 76 86 77 76 74 81 85 94 98 99 98 99 99 96 94 98 98 91 92 98 98 100 99 100 99 98 99 99 100 99
80 79 82 75 60 30 22 22 23 15 7 13 34 49 59 57 55 51 54 64 67 63 65 75 64 62 82 70 65 64 72 82 91 94 90 87 94 98 99 100 98 97 98 99 99 99 98 97 97 98 98 98 97 97
88 84 82 77 64 30 24 24 25 23 7 10 29 51 54 50 43 44 47 55 61 58 58 63 59 61 72 77 67 60 58 67 77 84 80 85 84 77 81 94 95 93 90 85 92 97 98 98 98 97 98 98 97 97
85 88 80 81 66 35 26 24 26 26 21 8 7 22 42 50 57 50 48 63 69 64 58 61 64 76 84 85 81 67 62 63 73 85 84 80 76 77 84 86 82 82 87 93 90 92 96 100 100 98 98 98 99 97
85 93 84 80 74 44 27 23 26 29 27 21 11 5 12 32 53 59 61 66 70 71 66 68 61 66 85 83 84 84 81 74 68 72 83 84 78 76 82 82 86 84 82 89 95 93 93 97 100 100 100 98 94 95
86 96 94 87 82 58 34 24 24 30 31 30 22 16 10 4 9 30 50 69 80 88 82 78 63 56 55 59 63 71 93 87 77 67 64 66 70 75 71 72 84 93 84 79 82 89 90 88 88 94 98 98 100 100
95 100 92 88 91 70 41 27 28 29 33 32 31 29 24 20 13 5 6 32 49 65 86 88 80 67 52 47 51 62 82 79 74 80 69 64 62 63 63 67 77 87 93 91 83 76 79 88 92 98 99 99 96 92
100 100 99 100 97 76 58 38 32 31 30 33 32 32 32 30 26 20 12 6 4 21 59 73 85 68 60 55 59 68 85 86 78 78 81 78 71 67 69 67 72 82 80 72 76 82 77 78 80 81 76 72 70 71
100 100 100 100 94 80 69 48 41 37 38 36 35 34 34 32 31 26 22 17 10 7 4 7 30 63 71 71 67 68 80 96 93 82 81 79 79 77 78 77 76 79 79 74 69 81 84 83 82 86 87 83 83 83
100 100 100 100 91 80 72 63 62 48 41 40 39 39 33 29 31 29 22 16 11 11 10 6 4 3 12 41 57 54 62 71 93 91 93 88 79 82 80 79 77 72 79 80 74 86 90 87 85 88 93 94 94 96
100 100 100 100 94 81 74 73 72 61 46 43 42 38 34 33 28 30 30 24 17 16 16 13 7 4 3 3 7 29 50 59 77 80 85 97 99 87 83 81 84 80 80 85 86 91 92 89 88 90 94 98 99 100
100 100 100 100 92 84 80 78 76 59 51 48 43 37 33 34 35 34 34 30 25 22 20 15 10 6 4 3 3 3 14 54 75 78 92 92 100 100 88 86 86 90 91 91 91 91 94 92 91 96 99 100 100 100
100 100 100 94 93 90 86 85 74 60 55 52 43 36 37 36 33 34 34 30 28 24 17 12 8 5 4 3 3 3 31 93 100 100 92 99 100 100 100 100 100 100 100 100 100 99 99 91 93 100 100 100 100 100
100 100 88 91 91 91 92 88 75 66 60 52 44 41 35 32 30 32 34 30 24 18 12 8 5 3 3 3 3 3 4 61 100 100 100 100 100 99 100 100 100 100 100 100 100 100 98 100 100 100 100 100 100 100
100 94 90 95 96 97 92 88 76 67 57 48 42 37 33 33 35 34 31 23 16 10 6 4 3 3 4 4 4 5 5 5 78 100 100 100 100 100 100 100 97 100 100 100 100 100 100 100 100 100 100 100 100 100
98 98 100 100 94 92 95 91 73 61 52 47 40 36 34 36 35 30 22 14 8 4 3 4 4 4 5 6 7 10 8 7 14 91 100 100 100 100 100 100 100 100 100 100 100 100 100 100 100 100 100 100 100 100
100 100 100 97 91 97 97 82 69 64 54 43 38 37 37 37 31 23 15 8 4 4 4 4 4 5 6 8 11 12 10 8 8 38 98 100 100 100 100 100 100 100 100 100 100 100 100 100 100 100 100 100 100 100
100 99 88 89 94 97 90 75 65 54 45 40 38 39 40 34 26 17 9 5 4 4 5 6 7 10 12 14 14 14 12 9 14 16 63 100 100 100 100 100 100 100 100 100 100 100 100 100 100 100 100 100 100 100
97 92 93 97 99 94 78 65 56 48 45 43 41 42 38 29 19 10 5 4 5 6 7 10 12 13 13 14 14 14 12 10 29 73 70 98 100 100 100 100 100 100 100 100 100 100 100 100 100 100 100 100 100 100
100 94 99 100 93 78 66 58 51 47 46 46 43 40 34 23 10 5 4 5 7 10 11 11 12 10 7 9 13 12 12 39 56 100 100 100 100 100 100 100 100 100 100 100 100 100 100 100 100 100 100 100 100 100
95 100 100 96 80 70 62 53 48 47 48 46 44 37 28 13 5 5 5 9 12 14 14 14 13 6 4 5 8 8 20 95 83 100 100 100 100 100 100 100 100 100 100 100 100 100 100 100 100 100 100 100 100 100
100 100 95 85 76 69 61 54 50 50 50 47 42 30 18 8 5 6 9 15 18 18 16 13 6 5 6 7 11 14 83 100 100 100 100 100 100 97 100 100 100 100 100 100 100 100 100 100 100 100 100 100 100 100
Wind_Speed
37 38 42 46 48 50 54 56 57 53 42 23 30 29 26 25 19 20 13 10 15 16 17 20 18 15 13 19 20 15 9 10 11 13 20 24 26 21 19 16 11 7 3 2 2 2 4 5 7 9 9 8 10 8
35 38 39 43 46 48 52 55 56 55 47 15 39 36 35 28 17 15 14 8 15 11 15 17 19 16 12 12 16 11 10 11 9 17 25 29 26 23 21 17 12 8 6 2 4 3 3 2 3 4 7 9 7 4
34 38 37 42 45 50 52 55 55 56 51 11 43 45 40 31 21 18 14 14 15 13 12 13 11 13 12 10 13 7 13 13 9 16 28 29 28 26 23 19 15 12 9 6 3 2 3 3 2 1 3 5 5 5
34 36 36 41 45 51 52 55 56 57 52 19 35 44 42 42 27 23 20 15 16 13 11 12 13 12 11 10 5 7 9 12 11 17 27 29 28 26 23 19 16 16 15 14 9 5 2 3 3 3 2 3 4 4
33 35 35 40 46 51 51 55 55 59 51 26 25 45 44 44 33 27 25 19 18 12 7 13 12 10 14 6 7 6 8 10 16 20 24 26 27 25 23 20 19 16 16 14 11 9 7 8 5 3 1 1 3 2
31 34 35 38 44 47 50 54 55 60 48 24 20 44 45 40 33 30 24 24 19 11 7 9 11 10 13 3 5 1 2 8 17 19 22 24 23 24 20 17 23 17 14 12 14 13 10 9 7 4 5 5 4 3
32 32 33 37 42 45 48 52 53 59 45 17 20 45 43 38 36 28 26 27 18 11 9 8 10 9 8 5 2 1 0 4 16 20 21 21 21 20 16 19 21 15 13 11 13 14 12 10 9 11 9 6 4 5
31 33 30 33 38 42 44 49 52 58 42 8 24 46 42 39 34 27 29 27 20 12 10 12 9 6 4 5 2 3 2 4 17 19 19 18 19 15 18 20 16 15 14 12 10 9 8 11 15 14 10 9 8 7
28 29 29 31 36 38 41 45 48 54 37 4 36 43 40 35 27 29 28 26 20 9 6 11 13 9 5 4 2 2 4 3 10 14 18 20 19 17 17 14 18 22 17 13 12 12 10 11 11 7 9 10 11 9
25 26 28 28 33 35 37 40 42 48 28 12 38 39 36 29 25 29 27 24 21 10 4 7 12 12 7 6 4 2 5 4 5 6 10 11 13 11 12 14 13 12 15 14 14 12 12 14 12 10 10 9 10 11
24 24 26 26 28 31 32 34 36 41 20 18 35 34 31 27 24 24 23 21 20 16 6 4 10 15 13 8 6 5 3 4 4 5 6 10 14 13 11 12 11 11 11 12 12 11 12 11 11 11 9 8 9 12
24 24 24 25 26 27 27 29 29 32 16 17 32 31 30 26 24 24 23 23 20 17 12 8 2 13 16 15 12 8 7 5 5 5 5 7 8 8 8 11 13 8 7 9 10 10 12 14 14 13 13 13 12 12
24 26 23 21 24 24 23 25 24 24 17 11 27 31 32 30 27 25 24 24 22 20 16 15 12 11 18 19 17 14 10 8 7 8 7 7 8 7 4 5 9 10 9 9 11 12 12 12 12 12 12 11 9 9
26 27 23 19 22 20 19 19 21 18 19 2 20 27 32 33 28 25 23 23 24 22 21 20 18 16 17 22 21 17 15 12 10 9 9 9 9 8 9 11 11 10 11 12 12 13 13 14 13 13 13 13 13 14
26 26 24 20 21 19 15 15 18 16 12 13 3 21 30 33 32 29 27 26 26 24 23 24 21 18 16 20 24 21 19 17 15 16 15 13 12 11 11 10 10 13 15 15 15 16 16 17 18 18 18 20 21 21
28 27 23 22 23 20 14 12 13 14 13 10 9 6 11 29 34 37 36 34 32 28 28 29 26 28 24 19 18 21 23 21 19 19 21 21 20 17 15 14 13 14 14 16 19 20 19 19 19 19 20 21 21 22
30 29 25 24 25 22 16 13 12 13 12 11 10 9 8 5 18 35 40 39 38 36 35 36 35 34 32 32 27 23 20 23 29 30 27 26 25 24 21 20 18 18 16 16 16 17 19 20 20 21 21 22 20 19
32 31 28 27 26 24 19 14 12 13 12 11 13 14 15 13 10 8 20 36 43 43 43 43 42 41 38 34 31 29 27 28 30 31 35 35 34 32 30 27 25 23 23 23 19 18 19 21 21 21 22 22 21 20
34 33 31 29 28 26 20 19 15 13 13 14 15 17 18 19 20 17 13 13 20 37 50 49 48 46 45 42 37 34 31 33 33 33 33 34 35 35 35 34 32 29 28 26 26 26 24 23 21 22 22 22 21 20
37 36 34 30 29 28 21 20 19 17 15 15 16 19 24 25 24 23 21 20 19 20 22 33 51 55 52 51 49 45 39 37 34 35 35 34 35 35 35 33 33 31 31 29 28 27 27 26 25 23 23 22 22 22
40 38 34 30 30 29 23 21 22 22 20 18 19 21 25 27 21 21 25 25 25 26 26 26 26 35 51 61 60 56 51 45 43 39 39 37 36 35 36 33 32 30 29 29 30 28 27 27 25 24 23 24 24 24
40 37 34 31 31 27 22 23 25 25 23 22 21 23 25 27 26 26 26 28 29 30 32 33 32 32 37 42 53 64 63 60 52 48 44 43 40 38 36 34 33 33 33 31 30 30 30 28 26 25 25 26 26 26
38 35 32 31 30 27 23 25 25 26 26 24 25 26 27 27 28 31 33 34 36 36 37 38 40 40 38 43 49 53 58 62 62 56 52 46 44 41 38 35 34 33 34 33 32 33 32 30 27 27 26 24 24 23
35 33 33 33 30 26 25 26 26 27 28 27 26 25 27 30 32 34 36 37 39 40 41 43 45 47 47 44 48 54 61 60 57 54 52 51 48 47 40 38 33 31 31 32 32 32 31 31 29 27 26 25 24 22
33 32 32 31 28 27 28 26 27 29 29 29 27 28 31 33 35 36 38 39 42 45 47 49 50 48 45 45 45 50 55 66 62 61 56 53 51 45 43 41 33 31 31 31 30 26 26 27 26 26 24 23 20 20
34 32 31 28 28 30 29 27 27 29 29 27 26 31 34 36 36 37 40 43 46 49 50 48 44 40 39 37 39 43 44 50 67 62 62 65 60 52 47 42 39 33 30 27 26 25 24 24 25 24 24 24 21 20
31 30 27 28 30 31 28 28 30 28 27 27 31 34 36 37 38 41 44 47 48 49 46 41 35 33 33 35 33 34 38 41 54 69 59 52 58 56 49 46 44 37 31 28 26 25 26 26 25 25 23 24 24 21
28 28 27 30 32 30 27 28 30 29 28 30 32 34 35 38 41 44 47 49 48 44 39 35 31 31 31 32 32 31 34 38 44 61 67 56 45 47 46 41 45 41 38 34 31 30 26 27 26 25 26 26 24 25
26 28 30 30 30 28 27 29 27 26 28 30 32 34 36 39 43 46 48 47 43 37 33 31 30 29 29 30 29 28 30 32 39 49 60 59 50 49 50 50 47 43 40 37 36 32 30 29 29 28 25 26 27 28
29 29 29 29 26 27 27 26 25 28 29 30 32 34 37 41 45 47 45 42 36 32 29 28 28 29 29 29 28 27 29 28 39 39 50 63 49 43 44 47 42 43 42 40 38 36 35 32 32 32 28 25 28 28
30 28 26 24 25 26 25 25 27 27 29 30 32 35 38 41 44 44 42 36 31 29 29 30 30 30 29 25 24 24 25 25 35 37 38 48 54 45 37 38 42 44 44 42 38 36 33 32 31 33 33 36 33 29
27 24 24 24 24 24 24 26 26 27 29 31 33 36 39 40 41 39 34 30 29 29 31 32 30 27 24 20 20 20 21 25 31 31 37 37 46 45 40 42 42 44 44 41 39 35 33 35 38 39 38 38 37 33
25 25 23 23 24 26 26 26 26 27 29 31 34 36 38 39 36 33 29 26 26 28 30 29 25 21 17 14 14 16 23 24 23 25 36 40 39 41 38 36 40 42 42 43 38 36 35 36 36 36 36 35 33 31
Wind_Direction
322 329 329 332 336 342 341 345 347 350 360 201 187 169 176 166 156 160 144 147 148 151 164 171 177 194 206 195 183 195 212 241 237 226 202 195 197 188 183 186 175 162 163 351 26 358 346 329 353 349 6 41 62 54
323 325 329 329 334 341 340 344 345 346 354 222 201 193 175 169 176 165 170 164 171 167 170 181 202 216 224 204 208 209 238 252 265 225 203 196 198 189 192 191 190 188 185 75 50 28 354 300 288 328 341 349 33 40
318 321 326 327 334 340 340 342 344 344 349 318 200 200 206 196 202 204 205 212 189 177 188 200 198 205 223 220 211 265 253 247 247 207 198 199 197 193 198 201 202 208 215 233 348 330 324 284 231 255 332 327 335 11
318 320 325 327 333 337 339 340 342 343 347 332 204 200 204 207 210 212 214 212 209 216 223 225 220 213 209 192 354 288 252 248 228 197 193 196 196 199 204 209 217 227 245 254 259 282 228 195 165 140 71 7 335 356
317 319 322 327 332 333 337 340 341 344 346 337 207 198 198 206 209 213 201 210 208 203 210 211 192 195 194 206 325 269 243 245 207 201 196 194 198 203 209 218 235 240 255 260 252 245 214 210 208 192 216 301 307 305
314 317 321 327 331 331 338 340 342 345 347 339 202 184 188 191 199 196 207 203 192 203 238 220 203 192 202 236 10 273 257 225 198 192 194 199 203 208 214 228 241 245 256 254 242 236 224 221 226 229 239 273 250 271
311 315 319 328 330 332 340 341 344 347 349 340 185 178 184 189 190 200 204 193 202 220 227 218 198 187 191 219 3 84 161 135 190 190 193 200 207 207 207 221 233 240 246 231 219 218 221 232 246 271 274 251 238 231
310 313 318 328 330 334 340 343 347 349 350 346 171 173 178 185 193 201 195 198 209 218 231 212 192 181 201 226 315 227 163 153 195 186 188 201 221 221 207 224 235 244 236 223 228 231 250 252 274 268 258 227 217 219
308 311 314 326 329 333 341 347 351 354 355 74 163 169 174 184 189 189 192 195 197 197 208 211 211 206 209 229 276 220 163 93 169 191 207 218 224 226 235 240 244 244 236 224 238 258 271 260 270 260 208 204 216 278
304 306 309 324 328 330 342 349 354 359 2 131 162 164 171 178 182 188 191 193 195 186 160 214 217 210 211 222 238 246 174 127 150 183 206 201 201 217 224 234 236 228 214 231 245 252 245 247 255 240 220 241 247 241
297 303 307 317 327 327 342 349 357 3 12 151 168 167 174 184 185 192 193 196 200 199 214 266 229 211 209 211 216 230 227 202 181 187 196 205 209 217 220 218 218 222 231 236 238 236 243 229 240 228 244 250 237 231
287 297 303 311 321 323 338 348 357 9 17 172 180 178 184 192 198 203 201 205 203 210 223 245 271 222 223 223 223 227 226 218 228 205 196 207 214 225 227 218 216 224 237 229 231 232 238 237 237 229 225 228 222 227
279 287 292 303 310 318 333 345 352 7 19 188 190 190 193 207 216 222 220 217 221 226 234 241 258 259 240 237 235 231 233 232 222 221 225 233 244 225 219 237 243 240 231 222 226 231 231 228 223 220 223 225 232 247
271 277 281 293 300 308 324 340 347 356 17 83 207 209 206 212 221 228 225 223 224 234 242 247 256 260 250 238 240 241 235 234 238 248 236 235 237 237 241 245 253 255 250 245 240 241 243 242 242 242 249 255 261 270
259 264 272 280 286 295 313 331 338 344 349 18 12 224 227 225 226 232 235 230 231 233 241 238 246 250 250 241 240 243 244 240 236 237 243 243 239 239 237 237 243 245 246 249 251 251 252 253 256 260 259 263 262 267
253 256 262 270 277 284 293 316 327 333 330 333 352 15 236 233 235 236 237 236 236 236 237 237 243 243 243 249 251 250 251 250 248 242 240 241 242 246 248 242 240 245 250 251 248 248 249 253 257 259 260 261 266 274
247 250 252 260 269 273 279 295 310 317 320 310 301 321 344 315 250 243 240 239 239 240 236 239 246 247 247 246 252 259 264 259 246 240 239 239 243 246 250 254 251 245 247 250 254 257 259 258 259 261 263 267 270 272
242 243 246 254 262 266 268 274 289 298 308 304 299 288 287 297 316 298 255 248 245 245 243 244 245 246 246 248 252 249 255 259 255 250 246 248 250 249 250 252 253 253 249 250 256 260 258 257 258 259 262 266 272 276
241 241 243 249 257 262 263 267 275 284 295 300 294 293 299 293 279 285 297 291 265 248 245 247 247 244 244 245 248 250 247 249 252 253 251 252 252 252 251 251 251 254 251 255 254 255 259 260 259 260 261 264 267 270
236 237 240 245 254 260 262 264 272 279 286 292 288 292 297 296 285 270 283 290 292 294 280 258 249 249 247 246 247 247 243 241 246 247 249 251 252 253 253 251 251 250 249 253 254 253 253 255 256 259 261 263 266 266
235 234 237 242 250 256 258 258 266 273 279 283 286 290 295 293 281 269 279 283 291 297 298 293 274 256 247 248 247 244 243 241 241 243 243 246 248 250 251 252 251 247 245 252 251 248 251 252 253 256 259 262 265 268
235 234 236 240 248 255 257 260 264 266 273 279 286 295 294 282 272 278 282 286 284 287 291 295 295 287 275 262 249 244 242 240 238 241 241 240 243 247 249 251 251 246 245 247 248 246 247 249 251 255 259 262 265 269
232 234 237 241 247 252 251 258 264 268 273 280 290 295 292 284 280 281 284 282 282 285 287 289 292 291 280 268 262 256 245 242 242 238 236 238 238 242 246 250 250 246 244 243 243 245 248 250 255 256 258 260 264 266
231 233 237 242 248 251 253 257 264 269 275 282 289 287 286 287 289 288 288 287 288 290 292 294 294 292 286 274 259 252 245 241 236 235 236 234 240 238 242 243 248 243 243 242 240 240 245 250 251 252 255 258 259 262
231 234 240 245 248 250 253 258 264 270 273 285 285 286 288 292 293 292 293 294 296 299 301 300 297 292 283 275 264 253 247 233 229 221 223 229 231 229 229 236 238 237 239 241 240 236 238 242 243 242 249 250 252 261
230 235 241 246 248 250 253 262 264 271 279 281 286 289 293 295 296 297 299 302 305 306 306 303 298 289 281 272 267 262 252 241 224 220 222 223 227 223 220 227 231 229 227 228 231 229 233 238 239 239 245 243 248 259
237 242 241 245 247 249 254 261 269 273 275 283 288 294 297 299 300 303 306 309 311 310 306 301 295 287 279 276 271 262 257 244 229 218 220 225 224 228 231 226 223 223 225 226 227 233 234 234 237 239 243 244 245 254
241 243 244 245 247 251 255 261 272 275 278 286 294 297 300 302 305 308 312 313 312 310 304 299 294 287 280 276 270 266 256 244 230 222 220 221 221 223 219 218 219 221 224 228 233 233 234 233 235 235 239 242 247 250
237 240 243 246 249 254 261 269 273 276 284 291 297 300 302 305 308 312 314 314 311 308 305 301 297 292 284 279 266 267 256 243 229 224 220 218 216 218 217 224 220 219 223 229 232 235 237 233 230 235 244 252 249 253
233 236 239 245 251 259 264 267 273 281 290 296 300 302 306 310 313 316 316 314 311 309 306 301 297 295 288 281 266 267 250 240 220 218 220 216 213 214 216 219 222 221 222 227 229 233 237 240 237 240 233 244 244 249
230 235 242 251 257 257 264 272 281 290 295 298 301 306 309 314 317 316 314 314 313 313 310 308 305 300 293 275 264 260 244 234 213 209 211 218 212 211 210 213 220 221 221 223 228 232 234 234 238 233 230 235 245 246
236 239 251 252 252 263 272 278 288 295 297 300 305 308 315 319 317 315 313 313 315 315 314 313 309 304 295 274 257 247 229 214 212 215 203 205 214 210 213 213 213 213 214 219 224 225 226 235 235 229 229 233 239 246
240 244 241 246 260 268 274 282 291 293 297 303 308 314 319 320 315 313 313 315 318 321 321 319 313 309 298 272 247 227 203 201 212 216 201 196 208 213 214 211 209 210 215 219 220 223 228 232 237 238 235 233 238 241